Wetterdaten: Montag, 28.03.2016
Datum Zeit Auen-Temp. Temp gefhlt Luftfeuchte Luftdruck Regen Wind Richtung Richtung Sonnenschein Taupunkt Windben
28.03.2016 00:00 3,3 C 3,1 C 86 % 1014,2 hPa 0,0 mm 0,0 km/h (0 Bft) O-NO 67 0 min 1,2 C 0,0 km/h (0 Bft)
28.03.2016 00:05 3,3 C 3,1 C 87 % 1014,2 hPa 0,0 mm 0,0 km/h (0 Bft) O 90 0 min 1,3 C 0,0 km/h (0 Bft)
28.03.2016 00:10 3,3 C 3,1 C 87 % 1013,9 hPa 0,0 mm 0,0 km/h (0 Bft) O-NO 67 0 min 1,3 C 0,0 km/h (0 Bft)
28.03.2016 00:15 3,2 C 3,0 C 87 % 1013,9 hPa 0,0 mm 0,0 km/h (0 Bft) O-NO 67 0 min 1,2 C 0,0 km/h (0 Bft)
28.03.2016 00:20 3,2 C 3,0 C 87 % 1013,9 hPa 0,0 mm 0,0 km/h (0 Bft) O 90 0 min 1,2 C 0,0 km/h (0 Bft)
28.03.2016 00:25 3,3 C 3,1 C 87 % 1013,9 hPa 0,0 mm 0,0 km/h (0 Bft) O-NO 67 0 min 1,3 C 0,0 km/h (0 Bft)
28.03.2016 00:30 3,3 C 3,1 C 88 % 1013,7 hPa 0,0 mm 0,0 km/h (0 Bft) O-NO 67 0 min 1,5 C 0,0 km/h (0 Bft)
28.03.2016 00:35 3,3 C 3,1 C 88 % 1013,7 hPa 0,0 mm 0,0 km/h (0 Bft) O-NO 67 0 min 1,5 C 0,0 km/h (0 Bft)
28.03.2016 00:40 3,3 C 3,1 C 88 % 1013,7 hPa 0,0 mm 0,0 km/h (0 Bft) O 90 0 min 1,5 C 0,0 km/h (0 Bft)
28.03.2016 00:45 3,3 C 3,1 C 88 % 1013,7 hPa 0,0 mm 0,0 km/h (0 Bft) O-NO 67 0 min 1,5 C 0,0 km/h (0 Bft)
28.03.2016 00:50 3,4 C 3,2 C 88 % 1013,6 hPa 0,0 mm 0,3 km/h (0 Bft) O-NO 67 0 min 1,6 C 0,0 km/h (0 Bft)
28.03.2016 00:55 3,4 C 3,2 C 89 % 1013,6 hPa 0,0 mm 0,3 km/h (0 Bft) SO 135 0 min 1,8 C 0,0 km/h (0 Bft)
28.03.2016 01:00 3,4 C 3,2 C 89 % 1013,6 hPa 0,0 mm 0,3 km/h (0 Bft) N-NW 337 0 min 1,8 C 0,0 km/h (0 Bft)
28.03.2016 01:05 3,4 C 3,2 C 88 % 1013,6 hPa 0,0 mm 1,8 km/h (1 Bft) W 270 0 min 1,6 C 6,0 km/h (2 Bft)
28.03.2016 01:10 3,4 C 3,2 C 88 % 1013,6 hPa 0,0 mm 1,8 km/h (1 Bft) O-SO 112 0 min 1,6 C 0,0 km/h (0 Bft)
28.03.2016 01:15 3,4 C 3,2 C 89 % 1013,6 hPa 0,0 mm 0,3 km/h (0 Bft) O-NO 67 0 min 1,8 C 0,0 km/h (0 Bft)
28.03.2016 01:20 3,4 C 3,2 C 89 % 1013,6 hPa 0,0 mm 0,0 km/h (0 Bft) NO 45 0 min 1,8 C 0,0 km/h (0 Bft)
28.03.2016 01:25 3,4 C 3,2 C 89 % 1013,6 hPa 0,0 mm 0,0 km/h (0 Bft) O-NO 67 0 min 1,8 C 0,0 km/h (0 Bft)
28.03.2016 01:30 3,4 C 3,2 C 89 % 1013,4 hPa 0,0 mm 0,0 km/h (0 Bft) O-NO 67 0 min 1,8 C 0,0 km/h (0 Bft)
28.03.2016 01:35 3,3 C 3,1 C 89 % 1013,4 hPa 0,0 mm 0,0 km/h (0 Bft) O-SO 112 0 min 1,7 C 0,0 km/h (0 Bft)
28.03.2016 01:40 3,3 C 3,1 C 89 % 1013,4 hPa 0,0 mm 0,0 km/h (0 Bft) W-NW 292 0 min 1,7 C 0,0 km/h (0 Bft)
28.03.2016 01:45 3,3 C 3,1 C 89 % 1013,4 hPa 0,0 mm 0,0 km/h (0 Bft) N-NW 337 0 min 1,7 C 0,0 km/h (0 Bft)
28.03.2016 01:50 3,2 C 3,0 C 88 % 1012,9 hPa 0,0 mm 0,0 km/h (0 Bft) O 90 0 min 1,4 C 0,0 km/h (0 Bft)
28.03.2016 01:55 3,3 C 3,1 C 89 % 1012,9 hPa 0,0 mm 0,0 km/h (0 Bft) NO 45 0 min 1,7 C 0,0 km/h (0 Bft)
28.03.2016 02:00 3,1 C 2,9 C 88 % 1012,9 hPa 0,0 mm 0,0 km/h (0 Bft) O-NO 67 0 min 1,3 C 0,0 km/h (0 Bft)
28.03.2016 02:05 3,1 C 2,9 C 88 % 1012,9 hPa 0,0 mm 1,8 km/h (1 Bft) W 270 0 min 1,3 C 7,7 km/h (2 Bft)
28.03.2016 02:10 3,1 C 2,9 C 88 % 1012,8 hPa 0,0 mm 2,1 km/h (1 Bft) W 270 0 min 1,3 C 3,0 km/h (1 Bft)
28.03.2016 02:15 3,2 C 3,0 C 88 % 1012,8 hPa 0,0 mm 1,8 km/h (1 Bft) NO 45 0 min 1,4 C 0,0 km/h (0 Bft)
28.03.2016 02:20 3,2 C 3,0 C 88 % 1012,8 hPa 0,0 mm 1,2 km/h (1 Bft) W-NW 292 0 min 1,4 C 0,0 km/h (0 Bft)
28.03.2016 02:23 3,2 C 3,0 C 89 % 1012,8 hPa 0,0 mm 1,2 km/h (1 Bft) NO 45 0 min 1,6 C 0,0 km/h (0 Bft)
28.03.2016 02:24 3,2 C 3,0 C 89 % 1012,8 hPa 0,0 mm 1,2 km/h (1 Bft) NO 45 0 min 1,6 C 0,0 km/h (0 Bft)
28.03.2016 02:25 3,2 C 3,0 C 89 % 1012,8 hPa 0,0 mm 1,2 km/h (1 Bft) NO 45 0 min 1,6 C 0,0 km/h (0 Bft)
28.03.2016 02:30 3,1 C 3,0 C 88 % 1012,6 hPa 0,0 mm 1,2 km/h (1 Bft) NW 315 0 min 1,3 C 0,0 km/h (0 Bft)
28.03.2016 02:35 3,1 C 2,9 C 88 % 1012,6 hPa 0,0 mm 0,0 km/h (0 Bft) W-SW 247 0 min 1,3 C 0,0 km/h (0 Bft)
28.03.2016 02:40 3,1 C 2,9 C 88 % 1012,6 hPa 0,0 mm 0,0 km/h (0 Bft) O-NO 67 0 min 1,3 C 0,0 km/h (0 Bft)
28.03.2016 02:45 3,1 C 2,9 C 88 % 1012,6 hPa 0,0 mm 0,0 km/h (0 Bft) W-SW 247 0 min 1,3 C 0,0 km/h (0 Bft)
28.03.2016 02:50 3,1 C 2,9 C 88 % 1012,6 hPa 0,0 mm 0,0 km/h (0 Bft) O-NO 67 0 min 1,3 C 0,0 km/h (0 Bft)
28.03.2016 02:55 3,2 C 3,0 C 88 % 1012,6 hPa 0,0 mm 0,0 km/h (0 Bft) O-SO 112 0 min 1,4 C 0,0 km/h (0 Bft)
28.03.2016 03:00 3,2 C 3,0 C 89 % 1012,6 hPa 0,0 mm 0,0 km/h (0 Bft) S 180 0 min 1,6 C 0,0 km/h (0 Bft)
28.03.2016 03:05 3,1 C 2,9 C 89 % 1012,6 hPa 0,0 mm 0,0 km/h (0 Bft) W-SW 247 0 min 1,5 C 0,0 km/h (0 Bft)
28.03.2016 03:10 3,2 C 3,0 C 89 % 1012,2 hPa 0,0 mm 0,0 km/h (0 Bft) O-NO 67 0 min 1,6 C 0,0 km/h (0 Bft)
28.03.2016 03:15 3,2 C 3,0 C 89 % 1012,2 hPa 0,0 mm 0,3 km/h (0 Bft) SO 135 0 min 1,6 C 0,0 km/h (0 Bft)
28.03.2016 03:20 3,2 C 3,0 C 89 % 1012,2 hPa 0,0 mm 0,0 km/h (0 Bft) O-SO 112 0 min 1,6 C 0,0 km/h (0 Bft)
28.03.2016 03:25 3,2 C 3,0 C 89 % 1012,2 hPa 0,0 mm 0,0 km/h (0 Bft) O-NO 67 0 min 1,6 C 0,0 km/h (0 Bft)
28.03.2016 03:30 3,2 C 3,0 C 89 % 1012,2 hPa 0,0 mm 0,0 km/h (0 Bft) O-NO 67 0 min 1,6 C 0,0 km/h (0 Bft)
28.03.2016 03:35 3,1 C 2,9 C 89 % 1012,2 hPa 0,0 mm 0,0 km/h (0 Bft) SO 135 0 min 1,5 C 0,0 km/h (0 Bft)
28.03.2016 03:40 3,1 C 2,9 C 89 % 1012,2 hPa 0,0 mm 0,0 km/h (0 Bft) NW 315 0 min 1,5 C 3,0 km/h (1 Bft)
28.03.2016 03:45 3,1 C 2,9 C 89 % 1012,2 hPa 0,0 mm 0,3 km/h (0 Bft) W-NW 292 0 min 1,5 C 0,0 km/h (0 Bft)
28.03.2016 03:50 3,1 C 2,9 C 89 % 1011,9 hPa 0,0 mm 0,3 km/h (0 Bft) NO 45 0 min 1,5 C 0,0 km/h (0 Bft)
28.03.2016 03:55 3,1 C 2,9 C 89 % 1011,9 hPa 0,0 mm 0,0 km/h (0 Bft) O-NO 67 0 min 1,5 C 0,0 km/h (0 Bft)
28.03.2016 04:00 3,1 C 2,9 C 89 % 1011,9 hPa 0,0 mm 0,0 km/h (0 Bft) S-SW 202 0 min 1,5 C 0,0 km/h (0 Bft)
28.03.2016 04:05 3,0 C 2,8 C 89 % 1011,9 hPa 0,0 mm 0,0 km/h (0 Bft) N-NO 22 0 min 1,4 C 0,0 km/h (0 Bft)
28.03.2016 04:10 3,1 C 2,9 C 89 % 1011,6 hPa 0,0 mm 0,0 km/h (0 Bft) O 90 0 min 1,5 C 0,0 km/h (0 Bft)
28.03.2016 04:15 3,1 C 2,9 C 89 % 1011,6 hPa 0,0 mm 0,0 km/h (0 Bft) S-SO 157 0 min 1,5 C 0,0 km/h (0 Bft)
28.03.2016 04:20 3,0 C 2,8 C 89 % 1011,6 hPa 0,0 mm 0,0 km/h (0 Bft) NW 315 0 min 1,4 C 0,0 km/h (0 Bft)
28.03.2016 04:25 3,0 C 2,9 C 89 % 1011,6 hPa 0,0 mm 0,0 km/h (0 Bft) O-NO 67 0 min 1,4 C 0,0 km/h (0 Bft)
28.03.2016 04:30 3,0 C 2,9 C 89 % 1011,5 hPa 0,0 mm 0,0 km/h (0 Bft) O 90 0 min 1,4 C 0,0 km/h (0 Bft)
28.03.2016 04:35 3,0 C 2,8 C 89 % 1011,5 hPa 0,0 mm 0,0 km/h (0 Bft) NO 45 0 min 1,4 C 0,0 km/h (0 Bft)
28.03.2016 04:40 3,0 C 2,8 C 89 % 1011,5 hPa 0,0 mm 0,0 km/h (0 Bft) O-NO 67 0 min 1,4 C 0,0 km/h (0 Bft)
28.03.2016 04:45 3,2 C 3,0 C 89 % 1011,5 hPa 0,0 mm 0,0 km/h (0 Bft) O-NO 67 0 min 1,6 C 0,0 km/h (0 Bft)
28.03.2016 04:50 3,1 C 2,9 C 89 % 1011,4 hPa 0,0 mm 0,0 km/h (0 Bft) N 360 0 min 1,5 C 0,0 km/h (0 Bft)
28.03.2016 04:55 3,0 C 2,8 C 89 % 1011,4 hPa 0,0 mm 0,0 km/h (0 Bft) N-NO 22 0 min 1,4 C 0,0 km/h (0 Bft)
28.03.2016 05:00 3,0 C 2,8 C 89 % 1011,4 hPa 0,0 mm 0,0 km/h (0 Bft) NO 45 0 min 1,4 C 0,0 km/h (0 Bft)
28.03.2016 05:05 2,9 C 2,8 C 89 % 1011,4 hPa 0,0 mm 0,0 km/h (0 Bft) NO 45 0 min 1,3 C 0,0 km/h (0 Bft)
28.03.2016 05:10 2,8 C 2,6 C 89 % 1011,1 hPa 0,0 mm 0,0 km/h (0 Bft) N-NW 337 0 min 1,2 C 0,0 km/h (0 Bft)
28.03.2016 05:15 2,7 C 2,5 C 89 % 1011,1 hPa 0,0 mm 0,0 km/h (0 Bft) NW 315 0 min 1,1 C 0,0 km/h (0 Bft)
28.03.2016 05:20 2,7 C 2,5 C 89 % 1011,1 hPa 0,0 mm 0,0 km/h (0 Bft) NO 45 0 min 1,1 C 0,0 km/h (0 Bft)
28.03.2016 05:23 2,8 C 2,5 C 89 % 1011,1 hPa 0,0 mm 0,0 km/h (0 Bft) O-NO 67 0 min 1,2 C 0,0 km/h (0 Bft)
28.03.2016 05:25 2,8 C 2,5 C 89 % 1011,1 hPa 0,0 mm 0,0 km/h (0 Bft) O-NO 67 0 min 1,2 C 0,0 km/h (0 Bft)
28.03.2016 05:30 2,7 C 2,4 C 89 % 1010,8 hPa 0,0 mm 0,0 km/h (0 Bft) O-NO 67 0 min 1,1 C 0,0 km/h (0 Bft)
28.03.2016 05:35 2,4 C 2,1 C 89 % 1010,8 hPa 0,0 mm 0,0 km/h (0 Bft) N-NO 22 0 min 0,8 C 0,0 km/h (0 Bft)
28.03.2016 05:40 2,2 C 2,0 C 89 % 1010,8 hPa 0,0 mm 0,0 km/h (0 Bft) N-NO 22 0 min 0,6 C 0,0 km/h (0 Bft)
28.03.2016 05:45 2,1 C 1,8 C 89 % 1010,8 hPa 0,0 mm 0,0 km/h (0 Bft) N-NO 22 0 min 0,5 C 0,0 km/h (0 Bft)
28.03.2016 05:50 1,9 C 1,6 C 89 % 1010,4 hPa 0,0 mm 0,0 km/h (0 Bft) N 360 0 min 0,3 C 0,0 km/h (0 Bft)
28.03.2016 05:55 1,7 C 1,4 C 89 % 1010,4 hPa 0,0 mm 0,0 km/h (0 Bft) N-NO 22 0 min 0,1 C 0,0 km/h (0 Bft)
28.03.2016 06:00 1,7 C 1,4 C 89 % 1010,4 hPa 0,0 mm 0,0 km/h (0 Bft) W-NW 292 0 min 0,1 C 0,0 km/h (0 Bft)
28.03.2016 06:05 1,7 C 1,3 C 89 % 1010,4 hPa 0,0 mm 0,0 km/h (0 Bft) O-SO 112 0 min 0,1 C 0,0 km/h (0 Bft)
28.03.2016 06:10 1,5 C 1,1 C 89 % 1010,3 hPa 0,0 mm 0,0 km/h (0 Bft) O 90 0 min -0,1 C 0,0 km/h (0 Bft)
28.03.2016 06:15 1,3 C 0,9 C 89 % 1010,3 hPa 0,0 mm 0,0 km/h (0 Bft) O 90 0 min -0,3 C 0,0 km/h (0 Bft)
28.03.2016 06:20 1,4 C 0,9 C 89 % 1010,3 hPa 0,0 mm 0,0 km/h (0 Bft) O-SO 112 0 min -0,2 C 0,0 km/h (0 Bft)
28.03.2016 06:25 1,5 C 0,9 C 89 % 1010,3 hPa 0,0 mm 0,0 km/h (0 Bft) O-NO 67 0 min -0,1 C 0,0 km/h (0 Bft)
28.03.2016 06:30 1,2 C 0,7 C 89 % 1010,2 hPa 0,0 mm 0,0 km/h (0 Bft) O-NO 67 0 min -0,4 C 0,0 km/h (0 Bft)
28.03.2016 06:35 1,3 C 0,8 C 89 % 1010,2 hPa 0,0 mm 0,0 km/h (0 Bft) O-NO 67 0 min -0,3 C 0,0 km/h (0 Bft)
28.03.2016 06:40 0,9 C 0,5 C 90 % 1010,2 hPa 0,0 mm 0,0 km/h (0 Bft) NO 45 0 min -0,6 C 0,0 km/h (0 Bft)
28.03.2016 06:45 0,8 C 0,4 C 90 % 1010,2 hPa 0,0 mm 0,0 km/h (0 Bft) NW 315 0 min -0,6 C 0,0 km/h (0 Bft)
28.03.2016 06:50 0,5 C 0,1 C 89 % 1009,6 hPa 0,0 mm 0,0 km/h (0 Bft) W-NW 292 0 min -1,1 C 0,0 km/h (0 Bft)
28.03.2016 06:55 0,3 C -0,1 C 89 % 1009,6 hPa 0,0 mm 0,0 km/h (0 Bft) NW 315 0 min -1,3 C 0,0 km/h (0 Bft)
28.03.2016 07:00 0,3 C -0,1 C 89 % 1009,6 hPa 0,0 mm 0,0 km/h (0 Bft) W 270 0 min -1,3 C 0,0 km/h (0 Bft)
28.03.2016 07:05 0,2 C -0,2 C 89 % 1009,6 hPa 0,0 mm 0,0 km/h (0 Bft) NW 315 0 min -1,4 C 0,0 km/h (0 Bft)
28.03.2016 07:10 0,2 C -0,2 C 89 % 1009,2 hPa 0,0 mm 0,0 km/h (0 Bft) W-SW 247 0 min -1,4 C 0,0 km/h (0 Bft)
28.03.2016 07:15 0,2 C -0,2 C 89 % 1009,2 hPa 0,0 mm 0,0 km/h (0 Bft) NW 315 0 min -1,4 C 0,0 km/h (0 Bft)
28.03.2016 07:20 0,1 C -0,3 C 89 % 1009,2 hPa 0,0 mm 0,0 km/h (0 Bft) W 270 0 min -1,5 C 0,0 km/h (0 Bft)
28.03.2016 07:25 0,1 C -0,3 C 89 % 1009,2 hPa 0,0 mm 0,0 km/h (0 Bft) NW 315 0 min -1,5 C 0,0 km/h (0 Bft)
28.03.2016 07:30 0,0 C -0,3 C 89 % 1009,1 hPa 0,0 mm 0,0 km/h (0 Bft) W 270 0 min -1,6 C 0,0 km/h (0 Bft)
28.03.2016 07:35 0,0 C -0,3 C 89 % 1009,1 hPa 0,0 mm 0,0 km/h (0 Bft) W 270 0 min -1,6 C 0,0 km/h (0 Bft)
28.03.2016 07:40 0,0 C -0,3 C 89 % 1009,1 hPa 0,0 mm 0,0 km/h (0 Bft) W 270 0 min -1,6 C 0,0 km/h (0 Bft)
28.03.2016 07:45 0,1 C -0,2 C 90 % 1009,1 hPa 0,0 mm 0,0 km/h (0 Bft) W-SW 247 0 min -1,3 C 0,0 km/h (0 Bft)
28.03.2016 07:50 0,2 C -0,2 C 90 % 1008,5 hPa 0,0 mm 0,0 km/h (0 Bft) W 270 0 min -1,2 C 0,0 km/h (0 Bft)
28.03.2016 07:55 0,5 C 0,1 C 90 % 1008,5 hPa 0,0 mm 0,0 km/h (0 Bft) NO 45 0 min -0,9 C 0,0 km/h (0 Bft)
28.03.2016 08:00 0,4 C 0,1 C 90 % 1008,5 hPa 0,0 mm 0,0 km/h (0 Bft) W 270 0 min -1,0 C 0,0 km/h (0 Bft)
28.03.2016 08:05 0,4 C 0,2 C 90 % 1008,5 hPa 0,0 mm 0,0 km/h (0 Bft) O-SO 112 0 min -1,0 C 0,0 km/h (0 Bft)
28.03.2016 08:10 0,6 C 1,0 C 90 % 1008,3 hPa 0,0 mm 0,0 km/h (0 Bft) SO 135 0 min -0,8 C 0,0 km/h (0 Bft)
28.03.2016 08:15 0,9 C 3,8 C 86 % 1008,3 hPa 0,0 mm 0,0 km/h (0 Bft) W-NW 292 5 min -1,2 C 0,0 km/h (0 Bft)
28.03.2016 08:20 1,1 C 5,4 C 86 % 1008,3 hPa 0,0 mm 0,0 km/h (0 Bft) N-NO 22 5 min -1,0 C 0,0 km/h (0 Bft)
28.03.2016 08:23 1,3 C 7,5 C 86 % 1008,3 hPa 0,0 mm 0,0 km/h (0 Bft) W-NW 292 3 min -0,8 C 0,0 km/h (0 Bft)
28.03.2016 08:26 1,3 C 7,5 C 86 % 1008,3 hPa 0,0 mm 0,0 km/h (0 Bft) W-NW 292 3 min -0,8 C 0,0 km/h (0 Bft)
28.03.2016 08:30 1,5 C 8,4 C 86 % 1008,2 hPa 0,0 mm 0,0 km/h (0 Bft) O 90 4 min -0,6 C 0,0 km/h (0 Bft)
28.03.2016 08:35 1,6 C 9,0 C 86 % 1008,2 hPa 0,0 mm 0,0 km/h (0 Bft) O-NO 67 5 min -0,5 C 0,0 km/h (0 Bft)
28.03.2016 08:40 1,7 C 9,2 C 87 % 1008,2 hPa 0,0 mm 0,0 km/h (0 Bft) O-NO 67 5 min -0,2 C 0,0 km/h (0 Bft)
28.03.2016 08:45 2,1 C 9,3 C 86 % 1008,2 hPa 0,0 mm 0,0 km/h (0 Bft) S-SW 202 5 min 0,0 C 0,0 km/h (0 Bft)
28.03.2016 08:50 2,6 C 10,4 C 87 % 1008,2 hPa 0,0 mm 0,0 km/h (0 Bft) S 180 5 min 0,7 C 0,0 km/h (0 Bft)
28.03.2016 08:55 3,3 C 11,5 C 86 % 1008,2 hPa 0,0 mm 0,0 km/h (0 Bft) NW 315 5 min 1,2 C 0,0 km/h (0 Bft)
28.03.2016 09:00 3,3 C 12,0 C 86 % 1008,2 hPa 0,0 mm 0,0 km/h (0 Bft) S-SO 157 5 min 1,2 C 0,0 km/h (0 Bft)
28.03.2016 09:05 3,7 C 12,0 C 86 % 1008,2 hPa 0,0 mm 0,0 km/h (0 Bft) NW 315 5 min 1,6 C 0,0 km/h (0 Bft)
28.03.2016 09:10 4,2 C 12,0 C 86 % 1008,5 hPa 0,0 mm 0,6 km/h (0 Bft) NO 45 5 min 2,1 C 0,0 km/h (0 Bft)
28.03.2016 09:15 5,0 C 12,7 C 86 % 1008,5 hPa 0,0 mm 1,2 km/h (1 Bft) W 270 5 min 2,9 C 7,2 km/h (2 Bft)
28.03.2016 09:20 5,1 C 12,0 C 86 % 1008,5 hPa 0,0 mm 2,1 km/h (1 Bft) NW 315 5 min 3,0 C 5,4 km/h (1 Bft)
28.03.2016 09:25 5,4 C 11,2 C 85 % 1008,5 hPa 0,0 mm 3,9 km/h (1 Bft) NW 315 5 min 3,1 C 5,4 km/h (1 Bft)
28.03.2016 09:30 5,8 C 11,5 C 85 % 1009,0 hPa 0,0 mm 2,7 km/h (1 Bft) N 360 5 min 3,5 C 0,0 km/h (0 Bft)
28.03.2016 09:35 6,5 C 13,7 C 84 % 1009,0 hPa 0,0 mm 0,6 km/h (0 Bft) S-SO 157 5 min 4,0 C 0,0 km/h (0 Bft)
28.03.2016 09:40 6,8 C 14,8 C 84 % 1009,0 hPa 0,0 mm 0,6 km/h (0 Bft) NW 315 5 min 4,3 C 3,9 km/h (1 Bft)
28.03.2016 09:45 7,9 C 15,2 C 83 % 1009,0 hPa 0,0 mm 1,2 km/h (1 Bft) W-SW 247 5 min 5,2 C 4,8 km/h (1 Bft)
28.03.2016 09:50 7,8 C 15,2 C 82 % 1009,5 hPa 0,0 mm 3,0 km/h (1 Bft) O-NO 67 5 min 4,9 C 8,9 km/h (2 Bft)
28.03.2016 09:55 8,2 C 15,2 C 80 % 1009,5 hPa 0,0 mm 3,9 km/h (1 Bft) SW 225 5 min 5,0 C 11,6 km/h (2 Bft)
28.03.2016 10:00 8,3 C 15,3 C 80 % 1009,5 hPa 0,0 mm 4,2 km/h (1 Bft) W 270 5 min 5,1 C 4,5 km/h (1 Bft)
28.03.2016 10:05 8,8 C 15,3 C 78 % 1009,5 hPa 0,0 mm 4,5 km/h (1 Bft) W 270 5 min 5,2 C 4,5 km/h (1 Bft)
28.03.2016 10:10 9,0 C 15,5 C 78 % 1009,8 hPa 0,0 mm 4,5 km/h (1 Bft) NW 315 5 min 5,4 C 10,7 km/h (2 Bft)
28.03.2016 10:15 9,2 C 14,7 C 76 % 1009,8 hPa 0,0 mm 7,5 km/h (2 Bft) W-NW 292 5 min 5,2 C 16,1 km/h (3 Bft)
28.03.2016 10:20 9,3 C 14,4 C 75 % 1009,8 hPa 0,0 mm 9,8 km/h (2 Bft) W-SW 247 5 min 5,1 C 10,1 km/h (2 Bft)
28.03.2016 10:25 9,6 C 14,6 C 74 % 1009,8 hPa 0,0 mm 8,9 km/h (2 Bft) W 270 5 min 5,2 C 11,9 km/h (2 Bft)
28.03.2016 10:30 9,8 C 14,8 C 74 % 1010,1 hPa 0,0 mm 7,7 km/h (2 Bft) W 270 5 min 5,4 C 8,6 km/h (2 Bft)
28.03.2016 10:35 10,1 C 14,9 C 73 % 1010,1 hPa 0,0 mm 8,0 km/h (2 Bft) W 270 5 min 5,5 C 10,7 km/h (2 Bft)
28.03.2016 10:40 10,1 C 15,0 C 72 % 1010,1 hPa 0,0 mm 8,9 km/h (2 Bft) NW 315 5 min 5,3 C 9,5 km/h (2 Bft)
28.03.2016 10:45 10,5 C 15,3 C 72 % 1010,1 hPa 0,0 mm 7,7 km/h (2 Bft) W-NW 292 5 min 5,7 C 8,3 km/h (2 Bft)
28.03.2016 10:50 10,8 C 15,8 C 71 % 1010,2 hPa 0,0 mm 6,0 km/h (2 Bft) W-NW 292 5 min 5,8 C 6,0 km/h (2 Bft)
28.03.2016 10:55 11,0 C 16,5 C 70 % 1010,2 hPa 0,0 mm 5,7 km/h (1 Bft) N-NW 337 5 min 5,7 C 6,3 km/h (2 Bft)
28.03.2016 11:00 11,3 C 17,1 C 69 % 1010,2 hPa 0,0 mm 4,8 km/h (1 Bft) N-NW 337 5 min 5,8 C 7,5 km/h (2 Bft)
28.03.2016 11:05 11,3 C 17,3 C 67 % 1010,2 hPa 0,0 mm 6,6 km/h (2 Bft) W-SW 247 5 min 5,4 C 17,0 km/h (3 Bft)
28.03.2016 11:10 11,3 C 17,3 C 66 % 1010,1 hPa 0,0 mm 7,5 km/h (2 Bft) W-SW 247 5 min 5,2 C 8,9 km/h (2 Bft)
28.03.2016 11:15 11,8 C 17,9 C 65 % 1010,1 hPa 0,0 mm 7,2 km/h (2 Bft) W-NW 292 5 min 5,4 C 7,2 km/h (2 Bft)
28.03.2016 11:20 12,0 C 17,6 C 64 % 1010,1 hPa 0,0 mm 7,7 km/h (2 Bft) W-NW 292 5 min 5,4 C 12,2 km/h (2 Bft)
28.03.2016 11:25 12,1 C 16,7 C 63 % 1010,1 hPa 0,0 mm 8,3 km/h (2 Bft) NW 315 5 min 5,3 C 19,4 km/h (3 Bft)
28.03.2016 11:27 12,1 C 16,7 C 63 % 1010,1 hPa 0,0 mm 8,3 km/h (2 Bft) NW 315 2 min 5,3 C 11,9 km/h (2 Bft)
28.03.2016 11:30 12,0 C 16,7 C 61 % 1010,2 hPa 0,0 mm 8,0 km/h (2 Bft) SW 225 3 min 4,7 C 3,6 km/h (1 Bft)
28.03.2016 11:35 12,4 C 17,2 C 61 % 1010,2 hPa 0,0 mm 8,3 km/h (2 Bft) NW 315 5 min 5,1 C 16,1 km/h (3 Bft)
28.03.2016 11:40 12,6 C 17,3 C 62 % 1010,2 hPa 0,0 mm 9,2 km/h (2 Bft) NW 315 5 min 5,5 C 16,1 km/h (3 Bft)
28.03.2016 11:45 12,5 C 16,7 C 59 % 1010,2 hPa 0,0 mm 12,2 km/h (2 Bft) W 270 5 min 4,7 C 24,4 km/h (4 Bft)
28.03.2016 11:50 12,9 C 16,8 C 59 % 1010,6 hPa 0,0 mm 13,7 km/h (3 Bft) W-SW 247 5 min 5,1 C 16,4 km/h (3 Bft)
28.03.2016 11:55 12,7 C 16,8 C 57 % 1010,6 hPa 0,0 mm 12,2 km/h (2 Bft) NW 315 5 min 4,4 C 12,8 km/h (3 Bft)
28.03.2016 12:00 12,8 C 16,8 C 57 % 1010,6 hPa 0,0 mm 11,3 km/h (2 Bft) W 270 5 min 4,5 C 17,6 km/h (3 Bft)
28.03.2016 12:05 12,9 C 16,5 C 57 % 1010,6 hPa 0,0 mm 11,6 km/h (2 Bft) NW 315 5 min 4,6 C 12,8 km/h (3 Bft)
28.03.2016 12:10 12,7 C 16,3 C 56 % 1010,2 hPa 0,0 mm 12,2 km/h (2 Bft) W 270 5 min 4,2 C 14,3 km/h (3 Bft)
28.03.2016 12:15 12,5 C 15,8 C 56 % 1010,2 hPa 0,0 mm 11,3 km/h (2 Bft) W-SW 247 0 min 4,0 C 12,5 km/h (3 Bft)
28.03.2016 12:20 12,5 C 15,8 C 56 % 1010,2 hPa 0,0 mm 10,4 km/h (2 Bft) W-NW 292 0 min 4,0 C 14,6 km/h (3 Bft)
28.03.2016 12:25 12,7 C 15,8 C 57 % 1010,2 hPa 0,0 mm 9,2 km/h (2 Bft) NW 315 0 min 4,4 C 10,1 km/h (2 Bft)
28.03.2016 12:30 13,0 C 16,0 C 56 % 1010,0 hPa 0,0 mm 8,9 km/h (2 Bft) W 270 0 min 4,4 C 8,9 km/h (2 Bft)
28.03.2016 12:35 13,0 C 16,0 C 56 % 1010,0 hPa 0,0 mm 8,6 km/h (2 Bft) NW 315 0 min 4,4 C 11,9 km/h (2 Bft)
28.03.2016 12:40 13,3 C 16,5 C 56 % 1010,0 hPa 0,0 mm 7,2 km/h (2 Bft) W-NW 292 0 min 4,7 C 3,6 km/h (1 Bft)
28.03.2016 12:45 13,5 C 17,3 C 55 % 1010,0 hPa 0,0 mm 8,0 km/h (2 Bft) N-NW 337 0 min 4,6 C 7,2 km/h (2 Bft)
28.03.2016 12:50 13,7 C 17,9 C 55 % 1009,7 hPa 0,0 mm 8,6 km/h (2 Bft) O-NO 67 0 min 4,8 C 12,8 km/h (3 Bft)
28.03.2016 12:55 13,6 C 17,6 C 52 % 1009,7 hPa 0,0 mm 8,6 km/h (2 Bft) W 270 5 min 3,9 C 5,7 km/h (1 Bft)
28.03.2016 13:00 13,6 C 17,8 C 51 % 1009,7 hPa 0,0 mm 8,0 km/h (2 Bft) W 270 5 min 3,7 C 9,2 km/h (2 Bft)
28.03.2016 13:05 13,4 C 17,4 C 50 % 1009,7 hPa 0,0 mm 6,3 km/h (2 Bft) SW 225 5 min 3,2 C 5,1 km/h (1 Bft)
28.03.2016 13:10 13,6 C 17,6 C 50 % 1009,5 hPa 0,0 mm 7,5 km/h (2 Bft) W-NW 292 0 min 3,4 C 19,1 km/h (3 Bft)
28.03.2016 13:15 13,6 C 17,5 C 50 % 1009,5 hPa 0,0 mm 7,2 km/h (2 Bft) S 180 5 min 3,4 C 3,6 km/h (1 Bft)
28.03.2016 13:20 13,5 C 17,5 C 50 % 1009,5 hPa 0,0 mm 7,7 km/h (2 Bft) W 270 5 min 3,3 C 10,1 km/h (2 Bft)
28.03.2016 13:25 13,6 C 17,0 C 50 % 1009,5 hPa 0,0 mm 9,2 km/h (2 Bft) N-NW 337 0 min 3,4 C 10,7 km/h (2 Bft)
28.03.2016 13:30 13,8 C 17,0 C 50 % 1009,4 hPa 0,0 mm 10,7 km/h (2 Bft) N-NO 22 0 min 3,6 C 15,5 km/h (3 Bft)
28.03.2016 13:35 14,2 C 17,0 C 49 % 1009,4 hPa 0,0 mm 12,8 km/h (3 Bft) NW 315 0 min 3,6 C 25,0 km/h (4 Bft)
28.03.2016 13:40 14,4 C 17,4 C 50 % 1009,4 hPa 0,0 mm 12,2 km/h (2 Bft) NW 315 0 min 4,1 C 17,0 km/h (3 Bft)
28.03.2016 13:45 14,4 C 17,9 C 49 % 1009,4 hPa 0,0 mm 11,0 km/h (2 Bft) W-NW 292 5 min 3,8 C 9,8 km/h (2 Bft)
28.03.2016 13:50 13,8 C 17,0 C 48 % 1009,1 hPa 0,0 mm 11,6 km/h (2 Bft) NW 315 5 min 3,0 C 5,1 km/h (1 Bft)
28.03.2016 13:55 13,6 C 16,4 C 49 % 1009,1 hPa 0,0 mm 9,8 km/h (2 Bft) W 270 0 min 3,1 C 14,3 km/h (3 Bft)
28.03.2016 14:00 13,6 C 16,2 C 49 % 1009,1 hPa 0,0 mm 10,7 km/h (2 Bft) W-NW 292 0 min 3,1 C 8,3 km/h (2 Bft)
28.03.2016 14:05 13,7 C 16,5 C 48 % 1009,1 hPa 0,0 mm 13,4 km/h (3 Bft) W-NW 292 0 min 2,9 C 22,9 km/h (4 Bft)
28.03.2016 14:10 13,8 C 16,8 C 47 % 1009,0 hPa 0,0 mm 11,6 km/h (2 Bft) W-NW 292 0 min 2,7 C 15,5 km/h (3 Bft)
28.03.2016 14:15 14,1 C 17,2 C 47 % 1009,0 hPa 0,0 mm 11,6 km/h (2 Bft) SW 225 0 min 3,0 C 13,1 km/h (3 Bft)
28.03.2016 14:20 14,5 C 18,1 C 47 % 1009,0 hPa 0,0 mm 12,2 km/h (2 Bft) NW 315 0 min 3,3 C 10,1 km/h (2 Bft)
28.03.2016 14:25 14,6 C 19,1 C 47 % 1009,0 hPa 0,0 mm 12,5 km/h (3 Bft) W 270 5 min 3,4 C 26,2 km/h (4 Bft)
28.03.2016 14:28 14,6 C 19,1 C 47 % 1009,0 hPa 0,0 mm 12,5 km/h (3 Bft) W 270 3 min 3,4 C 21,2 km/h (4 Bft)
28.03.2016 14:30 14,3 C 18,0 C 47 % 1009,1 hPa 0,0 mm 12,5 km/h (3 Bft) W 270 2 min 3,1 C 13,7 km/h (3 Bft)
28.03.2016 14:35 13,6 C 16,8 C 47 % 1009,1 hPa 0,0 mm 14,0 km/h (3 Bft) W 270 0 min 2,5 C 17,9 km/h (3 Bft)
28.03.2016 14:40 13,6 C 16,6 C 48 % 1009,1 hPa 0,0 mm 13,4 km/h (3 Bft) NW 315 0 min 2,8 C 15,2 km/h (3 Bft)
28.03.2016 14:45 13,5 C 16,0 C 48 % 1009,1 hPa 0,0 mm 11,6 km/h (2 Bft) NW 315 0 min 2,7 C 12,5 km/h (3 Bft)
28.03.2016 14:50 13,4 C 15,6 C 49 % 1008,8 hPa 0,0 mm 11,6 km/h (2 Bft) NW 315 0 min 2,9 C 11,9 km/h (2 Bft)
28.03.2016 14:55 13,2 C 14,9 C 49 % 1008,8 hPa 0,0 mm 11,9 km/h (2 Bft) N-NW 337 0 min 2,7 C 11,9 km/h (2 Bft)
28.03.2016 15:00 13,3 C 15,0 C 49 % 1008,8 hPa 0,0 mm 11,6 km/h (2 Bft) NW 315 0 min 2,8 C 6,9 km/h (2 Bft)
28.03.2016 15:05 13,6 C 15,6 C 49 % 1008,8 hPa 0,0 mm 10,7 km/h (2 Bft) N-NW 337 0 min 3,1 C 12,5 km/h (3 Bft)
28.03.2016 15:10 13,7 C 15,9 C 49 % 1008,6 hPa 0,0 mm 11,0 km/h (2 Bft) N-NW 337 0 min 3,2 C 13,4 km/h (3 Bft)
28.03.2016 15:15 14,0 C 16,6 C 49 % 1008,6 hPa 0,0 mm 12,5 km/h (3 Bft) NW 315 0 min 3,5 C 17,6 km/h (3 Bft)
28.03.2016 15:20 14,3 C 17,7 C 49 % 1008,6 hPa 0,0 mm 11,3 km/h (2 Bft) W 270 0 min 3,7 C 11,3 km/h (2 Bft)
28.03.2016 15:25 14,0 C 17,6 C 49 % 1008,6 hPa 0,0 mm 7,5 km/h (2 Bft) NW 315 5 min 3,5 C 21,5 km/h (4 Bft)
28.03.2016 15:30 13,9 C 17,0 C 49 % 1008,3 hPa 0,0 mm 7,5 km/h (2 Bft) NW 315 0 min 3,4 C 13,4 km/h (3 Bft)
28.03.2016 15:35 14,3 C 17,6 C 49 % 1008,3 hPa 0,0 mm 9,5 km/h (2 Bft) W 270 5 min 3,7 C 7,2 km/h (2 Bft)
28.03.2016 15:40 13,8 C 16,8 C 49 % 1008,3 hPa 0,0 mm 10,1 km/h (2 Bft) NW 315 5 min 3,3 C 15,5 km/h (3 Bft)
28.03.2016 15:45 13,6 C 15,7 C 50 % 1008,3 hPa 0,0 mm 9,5 km/h (2 Bft) NW 315 0 min 3,4 C 11,3 km/h (2 Bft)
28.03.2016 15:50 13,7 C 15,8 C 50 % 1008,2 hPa 0,0 mm 9,8 km/h (2 Bft) N-NW 337 0 min 3,5 C 10,1 km/h (2 Bft)
28.03.2016 15:55 13,6 C 15,8 C 50 % 1008,2 hPa 0,0 mm 10,1 km/h (2 Bft) NW 315 0 min 3,4 C 17,6 km/h (3 Bft)
28.03.2016 16:00 13,3 C 15,2 C 51 % 1008,2 hPa 0,0 mm 10,4 km/h (2 Bft) N 360 0 min 3,4 C 16,7 km/h (3 Bft)
28.03.2016 16:05 13,3 C 14,7 C 51 % 1008,2 hPa 0,0 mm 11,3 km/h (2 Bft) W-NW 292 0 min 3,4 C 8,0 km/h (2 Bft)
28.03.2016 16:10 13,2 C 14,7 C 51 % 1008,2 hPa 0,0 mm 11,0 km/h (2 Bft) W 270 0 min 3,3 C 8,6 km/h (2 Bft)
28.03.2016 16:15 13,0 C 14,6 C 51 % 1008,2 hPa 0,0 mm 11,3 km/h (2 Bft) NW 315 0 min 3,1 C 14,0 km/h (3 Bft)
28.03.2016 16:20 12,8 C 13,9 C 53 % 1008,2 hPa 0,0 mm 12,5 km/h (3 Bft) W-NW 292 0 min 3,5 C 14,3 km/h (3 Bft)
28.03.2016 16:25 12,7 C 13,6 C 53 % 1008,2 hPa 0,0 mm 12,8 km/h (3 Bft) NW 315 0 min 3,4 C 20,6 km/h (4 Bft)
28.03.2016 16:30 13,0 C 14,3 C 51 % 1008,2 hPa 0,0 mm 12,2 km/h (2 Bft) W 270 0 min 3,1 C 12,5 km/h (3 Bft)
28.03.2016 16:35 12,7 C 14,4 C 52 % 1008,2 hPa 0,0 mm 13,1 km/h (3 Bft) NW 315 0 min 3,1 C 13,7 km/h (3 Bft)
28.03.2016 16:40 12,4 C 13,7 C 52 % 1008,2 hPa 0,0 mm 12,2 km/h (2 Bft) W-NW 292 0 min 2,8 C 13,4 km/h (3 Bft)
28.03.2016 16:45 12,2 C 13,2 C 52 % 1008,2 hPa 0,0 mm 10,4 km/h (2 Bft) W-SW 247 0 min 2,6 C 8,6 km/h (2 Bft)
28.03.2016 16:50 12,1 C 13,0 C 53 % 1008,3 hPa 0,0 mm 9,2 km/h (2 Bft) NW 315 0 min 2,8 C 8,3 km/h (2 Bft)
28.03.2016 16:55 12,0 C 12,7 C 53 % 1008,3 hPa 0,0 mm 9,2 km/h (2 Bft) W 270 0 min 2,7 C 17,9 km/h (3 Bft)
28.03.2016 17:00 12,3 C 13,1 C 53 % 1008,3 hPa 0,0 mm 10,7 km/h (2 Bft) NW 315 0 min 3,0 C 13,4 km/h (3 Bft)
28.03.2016 17:05 12,0 C 13,2 C 52 % 1008,3 hPa 0,0 mm 11,6 km/h (2 Bft) N-NW 337 0 min 2,5 C 11,9 km/h (2 Bft)
28.03.2016 17:10 11,8 C 12,8 C 52 % 1007,9 hPa 0,0 mm 9,8 km/h (2 Bft) N-NO 22 0 min 2,3 C 6,3 km/h (2 Bft)
28.03.2016 17:15 11,8 C 12,7 C 52 % 1007,9 hPa 0,0 mm 6,3 km/h (2 Bft) NW 315 0 min 2,3 C 5,4 km/h (1 Bft)
28.03.2016 17:20 11,8 C 12,6 C 52 % 1007,9 hPa 0,0 mm 3,9 km/h (1 Bft) NW 315 0 min 2,3 C 5,7 km/h (1 Bft)
28.03.2016 17:25 11,7 C 12,7 C 53 % 1007,9 hPa 0,0 mm 3,6 km/h (1 Bft) N-NO 22 0 min 2,4 C 0,0 km/h (0 Bft)
28.03.2016 17:28 11,6 C 12,6 C 52 % 1007,5 hPa 0,0 mm 3,3 km/h (1 Bft) O-NO 67 0 min 2,1 C 3,9 km/h (1 Bft)
28.03.2016 17:29 11,6 C 12,6 C 52 % 1007,5 hPa 0,0 mm 3,3 km/h (1 Bft) O-NO 67 0 min 2,1 C 3,9 km/h (1 Bft)
28.03.2016 17:30 11,6 C 12,6 C 52 % 1007,5 hPa 0,0 mm 3,3 km/h (1 Bft) O-NO 67 0 min 2,1 C 3,9 km/h (1 Bft)
28.03.2016 17:35 11,5 C 12,4 C 52 % 1007,5 hPa 0,0 mm 1,2 km/h (1 Bft) S-SO 157 0 min 2,0 C 0,0 km/h (0 Bft)
28.03.2016 17:40 11,5 C 12,6 C 52 % 1007,5 hPa 0,0 mm 0,6 km/h (0 Bft) O-NO 67 0 min 2,0 C 3,6 km/h (1 Bft)
28.03.2016 17:45 11,4 C 12,6 C 52 % 1007,5 hPa 0,0 mm 1,8 km/h (1 Bft) O-NO 67 0 min 1,9 C 3,3 km/h (1 Bft)
28.03.2016 17:50 11,4 C 12,4 C 52 % 1007,2 hPa 0,0 mm 2,1 km/h (1 Bft) N-NO 22 0 min 1,9 C 3,3 km/h (1 Bft)
28.03.2016 17:55 11,3 C 12,2 C 53 % 1007,2 hPa 0,0 mm 0,6 km/h (0 Bft) O-SO 112 0 min 2,1 C 0,0 km/h (0 Bft)
28.03.2016 18:00 11,3 C 12,2 C 53 % 1007,2 hPa 0,0 mm 0,0 km/h (0 Bft) NO 45 0 min 2,1 C 0,0 km/h (0 Bft)
28.03.2016 18:05 11,4 C 12,4 C 54 % 1007,2 hPa 0,0 mm 0,0 km/h (0 Bft) N-NO 22 0 min 2,4 C 3,3 km/h (1 Bft)
28.03.2016 18:10 11,5 C 12,7 C 54 % 1007,0 hPa 0,0 mm 2,1 km/h (1 Bft) O-NO 67 0 min 2,5 C 11,9 km/h (2 Bft)
28.03.2016 18:15 11,4 C 12,5 C 54 % 1007,0 hPa 0,0 mm 5,4 km/h (1 Bft) O-SO 112 0 min 2,4 C 0,0 km/h (0 Bft)
28.03.2016 18:20 11,3 C 12,7 C 54 % 1007,0 hPa 0,0 mm 6,3 km/h (2 Bft) O-NO 67 0 min 2,3 C 11,3 km/h (2 Bft)
28.03.2016 18:25 11,3 C 12,5 C 54 % 1007,0 hPa 0,0 mm 5,4 km/h (1 Bft) O-NO 67 0 min 2,3 C 8,9 km/h (2 Bft)
28.03.2016 18:30 11,3 C 12,4 C 54 % 1006,7 hPa 0,0 mm 6,0 km/h (2 Bft) NO 45 0 min 2,3 C 12,2 km/h (2 Bft)
28.03.2016 18:35 11,1 C 12,0 C 54 % 1006,7 hPa 0,0 mm 6,3 km/h (2 Bft) SO 135 0 min 2,2 C 6,3 km/h (2 Bft)
28.03.2016 18:40 10,8 C 11,9 C 55 % 1006,7 hPa 0,0 mm 5,1 km/h (1 Bft) O-NO 67 0 min 2,1 C 3,0 km/h (1 Bft)
28.03.2016 18:45 10,4 C 11,2 C 55 % 1006,7 hPa 0,0 mm 2,7 km/h (1 Bft) NO 45 0 min 1,8 C 6,3 km/h (2 Bft)
28.03.2016 18:50 10,5 C 10,9 C 55 % 1006,8 hPa 0,0 mm 3,0 km/h (1 Bft) SO 135 0 min 1,8 C 7,7 km/h (2 Bft)
28.03.2016 18:55 10,5 C 10,6 C 56 % 1006,8 hPa 0,0 mm 3,0 km/h (1 Bft) O-NO 67 0 min 2,1 C 8,3 km/h (2 Bft)
28.03.2016 19:00 10,4 C 10,6 C 56 % 1006,8 hPa 0,0 mm 2,7 km/h (1 Bft) N-NO 22 0 min 2,0 C 6,3 km/h (2 Bft)
28.03.2016 19:05 10,3 C 10,5 C 56 % 1006,8 hPa 0,0 mm 2,7 km/h (1 Bft) O-NO 67 0 min 1,9 C 0,0 km/h (0 Bft)
28.03.2016 19:10 9,9 C 10,2 C 56 % 1006,7 hPa 0,0 mm 1,2 km/h (1 Bft) N-NW 337 0 min 1,5 C 0,0 km/h (0 Bft)
28.03.2016 19:15 9,9 C 9,9 C 56 % 1006,7 hPa 0,0 mm 0,6 km/h (0 Bft) SO 135 0 min 1,5 C 0,0 km/h (0 Bft)
28.03.2016 19:20 9,6 C 9,6 C 56 % 1006,7 hPa 0,0 mm 0,6 km/h (0 Bft) SO 135 0 min 1,3 C 0,0 km/h (0 Bft)
28.03.2016 19:25 9,4 C 9,6 C 57 % 1006,7 hPa 0,0 mm 0,0 km/h (0 Bft) SO 135 0 min 1,3 C 0,0 km/h (0 Bft)
28.03.2016 19:30 9,2 C 9,4 C 57 % 1006,9 hPa 0,0 mm 0,0 km/h (0 Bft) SO 135 0 min 1,1 C 0,0 km/h (0 Bft)
28.03.2016 19:35 9,0 C 8,9 C 58 % 1006,9 hPa 0,0 mm 0,0 km/h (0 Bft) W-SW 247 0 min 1,2 C 0,0 km/h (0 Bft)
28.03.2016 19:40 8,6 C 8,5 C 58 % 1006,9 hPa 0,0 mm 0,6 km/h (0 Bft) W-SW 247 0 min 0,8 C 4,5 km/h (1 Bft)
28.03.2016 19:45 8,4 C 8,2 C 59 % 1006,9 hPa 0,0 mm 2,4 km/h (1 Bft) S 180 0 min 0,9 C 7,2 km/h (2 Bft)
28.03.2016 19:50 8,1 C 7,9 C 60 % 1007,1 hPa 0,0 mm 3,9 km/h (1 Bft) SW 225 0 min 0,8 C 7,5 km/h (2 Bft)
28.03.2016 19:55 8,3 C 8,0 C 60 % 1007,1 hPa 0,0 mm 4,5 km/h (1 Bft) S 180 0 min 1,0 C 5,4 km/h (1 Bft)
28.03.2016 20:00 8,3 C 8,0 C 60 % 1007,1 hPa 0,0 mm 3,9 km/h (1 Bft) S-SO 157 0 min 1,0 C 3,3 km/h (1 Bft)
28.03.2016 20:05 8,1 C 7,8 C 60 % 1007,1 hPa 0,0 mm 3,9 km/h (1 Bft) S 180 0 min 0,8 C 8,6 km/h (2 Bft)
28.03.2016 20:10 7,6 C 7,5 C 62 % 1007,2 hPa 0,0 mm 4,5 km/h (1 Bft) SO 135 0 min 0,8 C 6,9 km/h (2 Bft)
28.03.2016 20:15 7,3 C 7,2 C 62 % 1007,2 hPa 0,0 mm 4,8 km/h (1 Bft) S 180 0 min 0,5 C 4,2 km/h (1 Bft)
28.03.2016 20:20 7,0 C 6,9 C 65 % 1007,2 hPa 0,0 mm 4,5 km/h (1 Bft) SO 135 0 min 0,9 C 6,3 km/h (2 Bft)
28.03.2016 20:25 6,7 C 6,6 C 65 % 1007,2 hPa 0,0 mm 2,1 km/h (1 Bft) S-SO 157 0 min 0,6 C 0,0 km/h (0 Bft)
28.03.2016 20:28 6,8 C 6,6 C 68 % 1007,1 hPa 0,0 mm 1,5 km/h (1 Bft) SO 135 0 min 1,3 C 0,0 km/h (0 Bft)
28.03.2016 20:30 6,8 C 6,6 C 68 % 1007,1 hPa 0,0 mm 1,5 km/h (1 Bft) SO 135 0 min 1,3 C 0,0 km/h (0 Bft)
28.03.2016 20:35 6,7 C 6,4 C 67 % 1007,1 hPa 0,0 mm 0,6 km/h (0 Bft) SO 135 0 min 1,0 C 3,0 km/h (1 Bft)
28.03.2016 20:40 6,6 C 6,2 C 67 % 1007,1 hPa 0,0 mm 0,6 km/h (0 Bft) S-SW 202 0 min 0,9 C 7,2 km/h (2 Bft)
28.03.2016 20:45 6,5 C 6,2 C 68 % 1007,1 hPa 0,0 mm 2,7 km/h (1 Bft) SO 135 0 min 1,0 C 3,9 km/h (1 Bft)
28.03.2016 20:50 6,2 C 5,9 C 67 % 1007,2 hPa 0,0 mm 2,4 km/h (1 Bft) SO 135 0 min 0,5 C 0,0 km/h (0 Bft)
28.03.2016 20:55 5,5 C 5,3 C 68 % 1007,2 hPa 0,0 mm 0,3 km/h (0 Bft) SO 135 0 min 0,1 C 3,0 km/h (1 Bft)
28.03.2016 21:00 5,4 C 5,1 C 70 % 1007,2 hPa 0,0 mm 0,6 km/h (0 Bft) O-SO 112 0 min 0,4 C 0,0 km/h (0 Bft)
28.03.2016 21:05 5,2 C 4,8 C 70 % 1007,2 hPa 0,0 mm 0,6 km/h (0 Bft) N-NO 22 0 min 0,2 C 4,2 km/h (1 Bft)
28.03.2016 21:10 5,1 C 4,7 C 72 % 1007,5 hPa 0,0 mm 0,6 km/h (0 Bft) O-SO 112 0 min 0,5 C 3,9 km/h (1 Bft)
28.03.2016 21:15 4,9 C 4,5 C 71 % 1007,5 hPa 0,0 mm 0,6 km/h (0 Bft) NW 315 0 min 0,1 C 0,0 km/h (0 Bft)
28.03.2016 21:20 5,0 C 4,5 C 72 % 1007,5 hPa 0,0 mm 1,2 km/h (1 Bft) O-NO 67 0 min 0,4 C 0,0 km/h (0 Bft)
28.03.2016 21:25 4,6 C 4,2 C 73 % 1007,5 hPa 0,0 mm 0,9 km/h (0 Bft) O-SO 112 0 min 0,2 C 0,0 km/h (0 Bft)
28.03.2016 21:30 4,6 C 4,1 C 73 % 1007,5 hPa 0,0 mm 0,0 km/h (0 Bft) SO 135 0 min 0,2 C 0,0 km/h (0 Bft)
28.03.2016 21:35 4,5 C 4,0 C 74 % 1007,5 hPa 0,0 mm 0,3 km/h (0 Bft) O-SO 112 0 min 0,3 C 0,0 km/h (0 Bft)
28.03.2016 21:40 4,3 C 3,8 C 74 % 1007,5 hPa 0,0 mm 0,3 km/h (0 Bft) O-SO 112 0 min 0,1 C 0,0 km/h (0 Bft)
28.03.2016 21:45 4,0 C 3,6 C 74 % 1007,5 hPa 0,0 mm 0,0 km/h (0 Bft) O-NO 67 0 min -0,2 C 0,0 km/h (0 Bft)
28.03.2016 21:50 3,8 C 3,4 C 74 % 1008,0 hPa 0,0 mm 0,0 km/h (0 Bft) O-NO 67 0 min -0,4 C 0,0 km/h (0 Bft)
28.03.2016 21:55 3,5 C 3,0 C 74 % 1008,0 hPa 0,0 mm 0,3 km/h (0 Bft) W-SW 247 0 min -0,7 C 5,1 km/h (1 Bft)
28.03.2016 22:00 3,8 C 3,3 C 76 % 1008,0 hPa 0,0 mm 0,6 km/h (0 Bft) O-SO 112 0 min -0,0 C 0,0 km/h (0 Bft)
28.03.2016 22:05 4,1 C 3,5 C 77 % 1008,0 hPa 0,0 mm 0,6 km/h (0 Bft) O-NO 67 0 min 0,4 C 0,0 km/h (0 Bft)
28.03.2016 22:10 3,8 C 3,3 C 77 % 1008,1 hPa 0,0 mm 0,6 km/h (0 Bft) W-SW 247 0 min 0,1 C 14,0 km/h (3 Bft)
28.03.2016 22:15 3,8 C 3,5 C 78 % 1008,1 hPa 0,0 mm 2,1 km/h (1 Bft) W 270 0 min 0,3 C 0,0 km/h (0 Bft)
28.03.2016 22:20 4,0 C 3,6 C 78 % 1008,1 hPa 0,0 mm 2,1 km/h (1 Bft) SO 135 0 min 0,5 C 0,0 km/h (0 Bft)
28.03.2016 22:25 4,6 C 4,1 C 78 % 1008,1 hPa 0,0 mm 0,6 km/h (0 Bft) N-NO 22 0 min 1,1 C 0,0 km/h (0 Bft)
28.03.2016 22:30 4,5 C 4,1 C 78 % 1008,2 hPa 0,0 mm 0,9 km/h (0 Bft) S-SO 157 0 min 1,0 C 0,0 km/h (0 Bft)
28.03.2016 22:35 4,5 C 4,1 C 78 % 1008,2 hPa 0,0 mm 0,0 km/h (0 Bft) O 90 0 min 1,0 C 0,0 km/h (0 Bft)
28.03.2016 22:40 4,1 C 3,8 C 77 % 1008,2 hPa 0,0 mm 0,0 km/h (0 Bft) W 270 0 min 0,4 C 0,0 km/h (0 Bft)
28.03.2016 22:45 4,7 C 4,3 C 74 % 1008,2 hPa 0,0 mm 0,0 km/h (0 Bft) W-SW 247 0 min 0,5 C 0,0 km/h (0 Bft)
28.03.2016 22:50 4,6 C 4,2 C 78 % 1008,1 hPa 0,0 mm 0,0 km/h (0 Bft) O-SO 112 0 min 1,1 C 0,0 km/h (0 Bft)
28.03.2016 22:55 4,1 C 3,8 C 77 % 1008,1 hPa 0,0 mm 0,0 km/h (0 Bft) O-SO 112 0 min 0,4 C 0,0 km/h (0 Bft)
28.03.2016 23:00 3,9 C 3,6 C 77 % 1008,1 hPa 0,0 mm 0,0 km/h (0 Bft) N-NO 22 0 min 0,2 C 0,0 km/h (0 Bft)
28.03.2016 23:05 3,6 C 3,3 C 77 % 1008,1 hPa 0,0 mm 0,0 km/h (0 Bft) O-SO 112 0 min -0,0 C 0,0 km/h (0 Bft)
28.03.2016 23:10 3,3 C 3,0 C 77 % 1008,2 hPa 0,0 mm 0,0 km/h (0 Bft) O-NO 67 0 min -0,3 C 0,0 km/h (0 Bft)
28.03.2016 23:15 3,1 C 2,8 C 77 % 1008,2 hPa 0,0 mm 0,0 km/h (0 Bft) O-NO 67 0 min -0,5 C 0,0 km/h (0 Bft)
28.03.2016 23:20 3,0 C 2,6 C 77 % 1008,2 hPa 0,0 mm 0,0 km/h (0 Bft) S-SO 157 0 min -0,6 C 0,0 km/h (0 Bft)
28.03.2016 23:25 3,0 C 2,6 C 78 % 1008,2 hPa 0,0 mm 0,0 km/h (0 Bft) W-NW 292 0 min -0,5 C 0,0 km/h (0 Bft)
28.03.2016 23:28 3,4 C 2,9 C 78 % 1008,3 hPa 0,0 mm 0,0 km/h (0 Bft) O-NO 67 0 min -0,1 C 0,0 km/h (0 Bft)
28.03.2016 23:31 3,4 C 2,9 C 78 % 1008,3 hPa 0,0 mm 0,0 km/h (0 Bft) O-NO 67 0 min -0,1 C 0,0 km/h (0 Bft)
28.03.2016 23:35 3,7 C 3,2 C 79 % 1008,3 hPa 0,0 mm 0,0 km/h (0 Bft) O-SO 112 0 min 0,4 C 0,0 km/h (0 Bft)
28.03.2016 23:40 4,1 C 3,6 C 79 % 1008,3 hPa 0,0 mm 0,0 km/h (0 Bft) O-SO 112 0 min 0,8 C 0,0 km/h (0 Bft)
28.03.2016 23:45 4,3 C 3,8 C 79 % 1008,3 hPa 0,0 mm 0,0 km/h (0 Bft) N-NO 22 0 min 1,0 C 0,0 km/h (0 Bft)
28.03.2016 23:50 4,1 C 3,7 C 78 % 1008,4 hPa 0,0 mm 0,3 km/h (0 Bft) S 180 0 min 0,6 C 0,0 km/h (0 Bft)
28.03.2016 23:55 4,1 C 3,7 C 78 % 1008,4 hPa 0,0 mm 0,3 km/h (0 Bft) N 360 0 min 0,6 C 0,0 km/h (0 Bft)
_ Min-Zeit 07:40 07:40 14:35 19:25 - 23:45 - - - 07:40 23:55
Minimum _ 0,0 C -0,3 C 47 % 1006,7 hPa - 0,0 km/h (0 Bft) - - - -1,6 C 0,0 km/h (0 Bft)
_ Max-Zeit 14:28 14:28 08:10 00:05 23:55 14:35 - - 15:40 11:00 14:25
Maximum _ 14,6 C 19,1 C 90 % 1014,2 hPa 0,0 mm 14,0 km/h
W (3 Bft)
- - 5 min 5,8 C 26,2 km/h
W (4 Bft)
Durchschnitt _ 7,0 C 8,4 C 72 % 1009,5 hPa #0,0 mm 3,6 km/h (1 Bft) NW - #5:00 h 1,9 C 4,7 km/h (1 Bft)